{"data":{"norad_id":39410,"epoch":"2026-09-20T05:23:41.959680Z","epoch_age_seconds":57358,"freshness":"FRESH","line1":"1 39410U 13065A   26263.22479120 -.00000016  00000+0  69329-4 0  9998","line2":"2 39410 100.1248 235.4279 0008742 226.9507 133.0875 13.15585705616144","mean_motion":13.15585705,"eccentricity":0.0008742,"inclination_deg":100.1248,"raan_deg":235.4279,"arg_perigee_deg":226.9507,"mean_anomaly_deg":133.0875,"bstar":6.9329e-5,"rev_number":61614,"period_min":109.45695096315,"perigee_km":1195.0018208006,"apogee_km":1208.2542820165,"semimajor_km":7579.7650514085,"source":"CELESTRAK","updated_at":"2026-09-20T09:00:13.952090Z"}}